Time,TemperatureF,DewpointF,PressureIn,WindDirection,WindDirectionDegrees,WindSpeedMPH,WindSpeedGustMPH,Humidity,HourlyPrecipIn,Conditions,Clouds,dailyrainin,SoftwareType,DateUTC
2013-04-30 00:00:00,61.0,48.0,30.15,NW,320,17.0,-999.0,63,-99.99,,,-99.99,,2013-04-30 00:00:00,
2013-04-30 00:21:00,61.0,48.0,30.15,NW,320,17.0,-999.0,63,-99.99,,,-99.99,,2013-04-30 00:21:00,
2013-04-30 00:31:00,61.0,48.0,30.15,NW,320,17.0,-999.0,63,-99.99,,,-99.99,,2013-04-30 00:31:00,
2013-04-30 00:41:00,61.0,48.0,30.15,NW,320,17.0,-999.0,63,-99.99,,,-99.99,,2013-04-30 00:41:00,
2013-04-30 00:51:00,61.0,48.0,30.15,NW,320,17.0,-999.0,63,-99.99,,,-99.99,,2013-04-30 00:51:00,
2013-04-30 02:00:00,63.0,57.0,30.15,North,360,17.0,-999.0,82,-99.99,,,-99.99,,2013-04-30 02:00:00,
2013-04-30 02:21:00,63.0,57.0,30.15,North,360,17.0,-999.0,82,-99.99,,,-99.99,,2013-04-30 02:21:00,
2013-04-30 02:31:00,63.0,57.0,30.15,North,360,17.0,-999.0,82,-99.99,,,-99.99,,2013-04-30 02:31:00,
2013-04-30 02:41:00,63.0,57.0,30.15,North,360,17.0,-999.0,82,-99.99,,,-99.99,,2013-04-30 02:41:00,
2013-04-30 02:51:00,63.0,57.0,30.15,North,360,17.0,-999.0,82,-99.99,,,-99.99,,2013-04-30 02:51:00,
2013-04-30 03:00:00,63.0,57.0,30.15,NNW,330,17.0,-999.0,82,-99.99,,,-99.99,,2013-04-30 03:00:00,
2013-04-30 03:42:00,63.0,57.0,30.15,NNW,330,17.0,-999.0,82,-99.99,,,-99.99,,2013-04-30 03:42:00,
2013-04-30 03:52:00,63.0,57.0,30.15,NNW,330,17.0,-999.0,82,-99.99,,,-99.99,,2013-04-30 03:52:00,
2013-04-30 05:00:00,63.0,50.0,30.14,NNW,330,15.0,-999.0,63,-99.99,,,-99.99,,2013-04-30 05:00:00,
2013-04-30 05:21:00,63.0,50.0,30.14,NNW,330,15.0,-999.0,63,-99.99,,,-99.99,,2013-04-30 05:21:00,
2013-04-30 05:31:00,63.0,50.0,30.14,NNW,330,15.0,-999.0,63,-99.99,,,-99.99,,2013-04-30 05:31:00,
2013-04-30 05:42:00,63.0,50.0,30.14,NNW,330,15.0,-999.0,63,-99.99,,,-99.99,,2013-04-30 05:42:00,
2013-04-30 05:51:00,63.0,50.0,30.14,NNW,330,15.0,-999.0,63,-99.99,,,-99.99,,2013-04-30 05:51:00,
2013-04-30 06:00:00,63.0,50.0,30.14,NW,320,15.0,-999.0,63,-99.99,,,-99.99,,2013-04-30 06:00:00,
2013-04-30 06:21:00,63.0,50.0,30.14,NW,320,15.0,-999.0,63,-99.99,,,-99.99,,2013-04-30 06:21:00,
2013-04-30 06:31:00,63.0,50.0,30.14,NW,320,15.0,-999.0,63,-99.99,,,-99.99,,2013-04-30 06:31:00,
2013-04-30 06:41:00,63.0,50.0,30.14,NW,320,15.0,-999.0,63,-99.99,,,-99.99,,2013-04-30 06:41:00,
2013-04-30 06:51:00,63.0,50.0,30.14,NW,320,15.0,-999.0,63,-99.99,,,-99.99,,2013-04-30 06:51:00,
2013-04-30 07:00:00,63.0,50.0,30.14,NW,320,15.0,-999.0,63,-99.99,,,-99.99,,2013-04-30 07:00:00,
2013-04-30 07:21:00,63.0,50.0,30.14,NW,320,15.0,-999.0,63,-99.99,,,-99.99,,2013-04-30 07:21:00,
2013-04-30 07:31:00,63.0,50.0,30.14,NW,320,15.0,-999.0,63,-99.99,,,-99.99,,2013-04-30 07:31:00,
2013-04-30 07:41:00,63.0,50.0,30.14,NW,320,15.0,-999.0,63,-99.99,,,-99.99,,2013-04-30 07:41:00,
2013-04-30 07:52:00,63.0,50.0,30.14,NW,320,15.0,-999.0,63,-99.99,,,-99.99,,2013-04-30 07:52:00,
2013-04-30 09:00:00,63.0,50.0,30.14,NW,320,10.0,-999.0,63,-99.99,,,-99.99,,2013-04-30 09:00:00,
2013-04-30 09:42:00,63.0,50.0,30.14,NW,320,10.0,-999.0,63,-99.99,,,-99.99,,2013-04-30 09:42:00,
2013-04-30 09:52:00,63.0,50.0,30.14,NW,320,10.0,-999.0,63,-99.99,,,-99.99,,2013-04-30 09:52:00,
2013-04-30 10:00:00,64.0,59.0,30.14,NW,320,6.0,-999.0,82,-99.99,,,-99.99,,2013-04-30 10:00:00,
2013-04-30 10:41:00,64.0,59.0,30.14,NW,320,6.0,-999.0,82,-99.99,,,-99.99,,2013-04-30 10:41:00,
2013-04-30 10:52:00,64.0,59.0,30.14,NW,320,6.0,-999.0,82,-99.99,,,-99.99,,2013-04-30 10:52:00,
2013-04-30 12:00:00,66.0,54.0,30.15,NNE,20,6.0,-999.0,63,-99.99,,,-99.99,,2013-04-30 12:00:00,
2013-04-30 12:11:00,66.0,54.0,30.15,NNE,20,6.0,-999.0,63,-99.99,,,-99.99,,2013-04-30 12:11:00,
2013-04-30 12:21:00,66.0,54.0,30.15,NNE,20,6.0,-999.0,63,-99.99,,,-99.99,,2013-04-30 12:21:00,
2013-04-30 12:31:00,66.0,54.0,30.15,NNE,20,6.0,-999.0,63,-99.99,,,-99.99,,2013-04-30 12:31:00,
2013-04-30 12:41:00,66.0,54.0,30.15,NNE,20,6.0,-999.0,63,-99.99,,,-99.99,,2013-04-30 12:41:00,
2013-04-30 12:51:00,66.0,54.0,30.15,NNE,20,6.0,-999.0,63,-99.99,,,-99.99,,2013-04-30 12:51:00,
2013-04-30 13:00:00,70.0,55.0,30.16,SE,130,14.0,-999.0,60,-99.99,,,-99.99,,2013-04-30 13:00:00,
2013-04-30 13:31:00,70.0,55.0,30.16,SE,130,14.0,-999.0,60,-99.99,,,-99.99,,2013-04-30 13:31:00,
2013-04-30 13:41:00,70.0,55.0,30.16,SE,130,14.0,-999.0,60,-99.99,,,-99.99,,2013-04-30 13:41:00,
2013-04-30 13:51:00,70.0,55.0,30.16,SE,130,14.0,-999.0,60,-99.99,,,-99.99,,2013-04-30 13:51:00,
2013-04-30 14:00:00,72.0,57.0,30.17,South,170,10.0,-999.0,60,-99.99,,,-99.99,,2013-04-30 14:00:00,
2013-04-30 14:31:00,72.0,57.0,30.17,South,170,10.0,-999.0,60,-99.99,,,-99.99,,2013-04-30 14:31:00,
2013-04-30 14:41:00,72.0,57.0,30.17,South,170,10.0,-999.0,60,-99.99,,,-99.99,,2013-04-30 14:41:00,
2013-04-30 14:51:00,72.0,57.0,30.17,South,170,10.0,-999.0,60,-99.99,,,-99.99,,2013-04-30 14:51:00,
2013-04-30 15:00:00,72.0,57.0,30.17,NNE,30,5.0,-999.0,60,-99.99,,,-99.99,,2013-04-30 15:00:00,
2013-04-30 15:32:00,72.0,57.0,30.17,NNE,30,5.0,-999.0,60,-99.99,,,-99.99,,2013-04-30 15:32:00,
2013-04-30 15:42:00,72.0,57.0,30.17,NNE,30,5.0,-999.0,60,-99.99,,,-99.99,,2013-04-30 15:42:00,
2013-04-30 15:52:00,72.0,57.0,30.17,NNE,30,5.0,-999.0,60,-99.99,,,-99.99,,2013-04-30 15:52:00,
2013-04-30 18:00:00,73.0,61.0,30.11,SSW,200,15.0,-999.0,64,-99.99,,,-99.99,,2013-04-30 18:00:00,
2013-04-30 18:22:00,73.0,61.0,30.11,SSW,200,15.0,-999.0,64,-99.99,,,-99.99,,2013-04-30 18:22:00,
2013-04-30 18:32:00,73.0,61.0,30.11,SSW,200,15.0,-999.0,64,-99.99,,,-99.99,,2013-04-30 18:32:00,
2013-04-30 18:41:00,73.0,61.0,30.11,SSW,200,15.0,-999.0,64,-99.99,,,-99.99,,2013-04-30 18:41:00,
2013-04-30 18:51:00,73.0,61.0,30.11,SSW,200,15.0,-999.0,64,-99.99,,,-99.99,,2013-04-30 18:51:00,
2013-04-30 19:00:00,72.0,61.0,30.09,SSW,200,15.0,-999.0,68,-99.99,,,-99.99,,2013-04-30 19:00:00,
2013-04-30 19:21:00,72.0,61.0,30.09,SSW,200,15.0,-999.0,68,-99.99,,,-99.99,,2013-04-30 19:21:00,
2013-04-30 19:31:00,72.0,61.0,30.09,SSW,200,15.0,-999.0,68,-99.99,,,-99.99,,2013-04-30 19:31:00,
2013-04-30 19:41:00,72.0,61.0,30.09,SSW,200,15.0,-999.0,68,-99.99,,,-99.99,,2013-04-30 19:41:00,
2013-04-30 19:52:00,72.0,61.0,30.09,SSW,200,15.0,-999.0,68,-99.99,,,-99.99,,2013-04-30 19:52:00,
2013-04-30 20:00:00,72.0,61.0,30.08,SSW,200,15.0,-999.0,66,-99.99,,,-99.99,,2013-04-30 20:00:00,
2013-04-30 20:21:00,72.0,61.0,30.08,SSW,200,15.0,-999.0,66,-99.99,,,-99.99,,2013-04-30 20:21:00,
2013-04-30 20:32:00,72.0,61.0,30.08,SSW,200,15.0,-999.0,66,-99.99,,,-99.99,,2013-04-30 20:32:00,
2013-04-30 20:42:00,72.0,61.0,30.08,SSW,200,15.0,-999.0,66,-99.99,,,-99.99,,2013-04-30 20:42:00,
2013-04-30 20:52:00,72.0,61.0,30.08,SSW,200,15.0,-999.0,66,-99.99,,,-99.99,,2013-04-30 20:52:00,
2013-04-30 22:00:00,71.0,63.0,30.06,South,190,22.0,-999.0,75,-99.99,,,-99.99,,2013-04-30 22:00:00,
2013-04-30 22:32:00,71.0,63.0,30.06,South,190,22.0,-999.0,75,-99.99,,,-99.99,,2013-04-30 22:32:00,
2013-04-30 22:41:00,71.0,63.0,30.06,South,190,22.0,-999.0,75,-99.99,,,-99.99,,2013-04-30 22:41:00,
2013-04-30 22:52:00,71.0,63.0,30.06,South,190,22.0,-999.0,75,-99.99,,,-99.99,,2013-04-30 22:52:00,
2013-04-30 23:00:00,70.0,61.0,30.03,South,190,22.0,-999.0,73,-99.99,,,-99.99,,2013-04-30 23:00:00,
2013-04-30 23:32:00,70.0,61.0,30.03,South,190,22.0,-999.0,73,-99.99,,,-99.99,,2013-04-30 23:32:00,
2013-04-30 23:42:00,70.0,61.0,30.03,South,190,22.0,-999.0,73,-99.99,,,-99.99,,2013-04-30 23:42:00,
2013-04-30 23:52:00,70.0,61.0,30.03,South,190,22.0,-999.0,73,-99.99,,,-99.99,,2013-04-30 23:52:00,